TimeEST,TemperatureF,Dew PointF,Humidity,Sea Level PressureIn,VisibilityMPH,Wind Direction,Wind SpeedMPH,Gust SpeedMPH,PrecipitationIn,Events,Conditions,WindDirDegrees,DateUTC
12:15 AM,53.6,50.0,88,29.43,10.0,WSW,10.4,16.1,N/A,,Overcast,240,2014-01-12 05:15:00
12:35 AM,53.6,50.0,88,29.44,10.0,WSW,10.4,16.1,N/A,,Overcast,240,2014-01-12 05:35:00
12:55 AM,53.6,48.2,82,29.45,10.0,West,11.5,-,N/A,,Overcast,260,2014-01-12 05:55:00
1:15 AM,51.8,48.2,88,29.46,10.0,WNW,23.0,34.5,0.01,,Overcast,300,2014-01-12 06:15:00
1:35 AM,48.2,42.8,82,29.47,10.0,WNW,11.5,-,0.01,,Mostly Cloudy,290,2014-01-12 06:35:00
1:55 AM,48.2,42.8,82,29.48,10.0,West,15.0,21.9,0.01,,Overcast,280,2014-01-12 06:55:00
2:15 AM,48.2,39.2,71,29.48,10.0,WNW,12.7,18.4,N/A,,Scattered Clouds,290,2014-01-12 07:15:00
2:35 AM,48.2,37.4,66,29.49,10.0,WNW,17.3,26.5,N/A,,Mostly Cloudy,290,2014-01-12 07:35:00
2:55 AM,46.4,37.4,71,29.50,10.0,WNW,17.3,24.2,N/A,,Scattered Clouds,290,2014-01-12 07:55:00
3:15 AM,46.4,35.6,66,29.51,10.0,West,16.1,24.2,N/A,,Clear,280,2014-01-12 08:15:00
3:35 AM,46.4,35.6,66,29.53,10.0,WNW,15.0,23.0,N/A,,Clear,290,2014-01-12 08:35:00
3:55 AM,46.4,33.8,62,29.52,10.0,WNW,17.3,25.3,N/A,,Clear,290,2014-01-12 08:55:00
4:15 AM,44.6,32.0,61,29.52,10.0,WNW,11.5,24.2,N/A,,Clear,290,2014-01-12 09:15:00
4:35 AM,44.6,30.2,57,29.54,10.0,WNW,17.3,26.5,N/A,,Clear,290,2014-01-12 09:35:00
4:55 AM,44.6,30.2,57,29.54,10.0,WNW,19.6,27.6,N/A,,Clear,290,2014-01-12 09:55:00
5:15 AM,44.6,30.2,57,29.54,10.0,WNW,15.0,26.5,N/A,,Clear,290,2014-01-12 10:15:00
5:35 AM,42.8,30.2,61,29.56,10.0,West,13.8,-,N/A,,Clear,280,2014-01-12 10:35:00
5:55 AM,42.8,30.2,61,29.58,10.0,West,12.7,17.3,N/A,,Clear,280,2014-01-12 10:55:00
6:15 AM,42.8,30.2,61,29.59,10.0,West,17.3,21.9,N/A,,Clear,280,2014-01-12 11:15:00
6:35 AM,42.8,30.2,61,29.62,10.0,West,10.4,-,N/A,,Clear,280,2014-01-12 11:35:00
6:55 AM,41.0,30.2,65,29.64,10.0,West,9.2,-,N/A,,Clear,280,2014-01-12 11:55:00
7:15 AM,41.0,30.2,65,29.65,10.0,West,10.4,-,N/A,,Clear,280,2014-01-12 12:15:00
7:35 AM,41.0,28.4,61,29.67,10.0,West,9.2,-,N/A,,Clear,270,2014-01-12 12:35:00
7:55 AM,41.0,28.4,61,29.70,10.0,West,10.4,-,N/A,,Clear,280,2014-01-12 12:55:00
8:15 AM,42.8,28.4,57,29.71,10.0,West,12.7,18.4,N/A,,Mostly Cloudy,280,2014-01-12 13:15:00
8:35 AM,42.8,28.4,57,29.73,10.0,West,11.5,18.4,N/A,,Scattered Clouds,280,2014-01-12 13:35:00
8:55 AM,42.8,28.4,57,29.74,10.0,West,13.8,21.9,N/A,,Clear,280,2014-01-12 13:55:00
9:15 AM,42.8,28.4,57,29.76,10.0,West,16.1,21.9,N/A,,Partly Cloudy,280,2014-01-12 14:15:00
9:35 AM,44.6,28.4,53,29.77,10.0,West,18.4,26.5,N/A,,Scattered Clouds,280,2014-01-12 14:35:00
9:55 AM,44.6,28.4,53,29.78,10.0,WNW,19.6,25.3,N/A,,Scattered Clouds,290,2014-01-12 14:55:00
10:15 AM,44.6,28.4,53,29.79,10.0,WNW,16.1,29.9,N/A,,Overcast,290,2014-01-12 15:15:00
10:35 AM,44.6,26.6,49,29.80,10.0,WNW,20.7,29.9,N/A,,Overcast,290,2014-01-12 15:35:00
10:55 AM,44.6,28.4,53,29.80,10.0,WNW,18.4,26.5,N/A,,Mostly Cloudy,290,2014-01-12 15:55:00
11:15 AM,44.6,26.6,49,29.80,10.0,WNW,20.7,28.8,N/A,,Mostly Cloudy,300,2014-01-12 16:15:00
11:35 AM,44.6,26.6,49,29.81,10.0,West,23.0,28.8,N/A,,Overcast,280,2014-01-12 16:35:00
11:55 AM,46.4,26.6,46,29.80,10.0,WNW,16.1,26.5,N/A,,Overcast,300,2014-01-12 16:55:00
12:15 PM,46.4,26.6,46,29.81,10.0,West,19.6,29.9,N/A,,Mostly Cloudy,280,2014-01-12 17:15:00
12:35 PM,44.6,26.6,49,29.81,10.0,West,20.7,26.5,N/A,,Mostly Cloudy,280,2014-01-12 17:35:00
12:55 PM,44.6,26.6,49,29.82,10.0,WNW,18.4,24.2,N/A,,Overcast,290,2014-01-12 17:55:00
1:15 PM,44.6,26.6,49,29.83,10.0,West,10.4,27.6,N/A,,Overcast,270,2014-01-12 18:15:00
1:35 PM,44.6,26.6,49,29.84,10.0,WNW,16.1,24.2,N/A,,Overcast,290,2014-01-12 18:35:00
1:55 PM,44.6,26.6,49,29.84,10.0,WNW,13.8,25.3,N/A,,Mostly Cloudy,290,2014-01-12 18:55:00
2:15 PM,44.6,26.6,49,29.85,10.0,WNW,17.3,27.6,N/A,,Mostly Cloudy,290,2014-01-12 19:15:00
2:35 PM,46.4,26.6,46,29.86,10.0,West,18.4,24.2,N/A,,Overcast,280,2014-01-12 19:35:00
2:55 PM,44.6,26.6,49,29.88,10.0,West,12.7,24.2,N/A,,Overcast,280,2014-01-12 19:55:00
3:15 PM,44.6,24.8,46,29.90,10.0,WNW,13.8,23.0,N/A,,Mostly Cloudy,290,2014-01-12 20:15:00
3:35 PM,44.6,24.8,46,29.92,10.0,West,12.7,24.2,N/A,,Scattered Clouds,280,2014-01-12 20:35:00
3:55 PM,42.8,26.6,53,29.93,10.0,West,16.1,25.3,N/A,,Mostly Cloudy,280,2014-01-12 20:55:00
4:15 PM,44.6,26.6,49,29.94,10.0,West,16.1,23.0,N/A,,Overcast,280,2014-01-12 21:15:00
4:35 PM,42.8,24.8,49,29.95,10.0,WNW,16.1,27.6,N/A,,Overcast,290,2014-01-12 21:35:00
4:55 PM,42.8,26.6,53,29.97,10.0,West,12.7,24.2,N/A,,Overcast,280,2014-01-12 21:55:00
5:15 PM,42.8,26.6,53,29.98,10.0,West,16.1,-,N/A,,Overcast,280,2014-01-12 22:15:00
5:35 PM,42.8,24.8,49,29.99,10.0,West,12.7,19.6,N/A,,Overcast,280,2014-01-12 22:35:00
5:55 PM,42.8,26.6,53,30.00,10.0,WNW,18.4,24.2,N/A,,Overcast,290,2014-01-12 22:55:00
6:15 PM,41.0,24.8,53,30.01,10.0,WNW,9.2,16.1,N/A,,Scattered Clouds,290,2014-01-12 23:15:00
6:35 PM,39.2,24.8,56,30.02,10.0,West,11.5,-,N/A,,Clear,280,2014-01-12 23:35:00
6:55 PM,39.2,24.8,56,30.03,10.0,West,11.5,-,N/A,,Clear,280,2014-01-12 23:55:00
7:15 PM,39.2,24.8,56,30.03,10.0,WNW,8.1,-,N/A,,Clear,290,2014-01-13 00:15:00
7:35 PM,39.2,24.8,56,30.03,10.0,West,4.6,-,N/A,,Clear,280,2014-01-13 00:35:00
7:55 PM,37.4,24.8,60,30.03,10.0,WSW,5.8,-,N/A,,Clear,250,2014-01-13 00:55:00
8:15 PM,37.4,24.8,60,30.04,10.0,West,5.8,-,N/A,,Clear,270,2014-01-13 01:15:00
8:35 PM,37.4,24.8,60,30.06,10.0,West,4.6,-,N/A,,Clear,260,2014-01-13 01:35:00
8:55 PM,35.6,24.8,65,30.06,10.0,West,5.8,-,N/A,,Clear,270,2014-01-13 01:55:00
9:15 PM,35.6,24.8,65,30.06,10.0,West,4.6,-,N/A,,Clear,270,2014-01-13 02:15:00
9:35 PM,35.6,24.8,65,30.08,10.0,WSW,5.8,-,N/A,,Clear,240,2014-01-13 02:35:00
9:55 PM,35.6,24.8,65,30.08,10.0,WSW,3.5,-,N/A,,Clear,250,2014-01-13 02:55:00
10:15 PM,35.6,24.8,65,30.08,10.0,West,4.6,-,N/A,,Clear,260,2014-01-13 03:15:00
10:35 PM,35.6,24.8,65,30.08,10.0,WSW,4.6,-,N/A,,Clear,240,2014-01-13 03:35:00
10:55 PM,35.6,24.8,65,30.09,10.0,SW,6.9,-,N/A,,Clear,230,2014-01-13 03:55:00
11:15 PM,35.6,24.8,65,30.09,10.0,SW,6.9,-,N/A,,Clear,220,2014-01-13 04:15:00
11:35 PM,35.6,24.8,65,30.10,10.0,SW,4.6,-,N/A,,Clear,230,2014-01-13 04:35:00
11:55 PM,35.6,24.8,65,30.10,10.0,SW,5.8,-,N/A,,Clear,230,2014-01-13 04:55:00